Regional Weather Roundup
Issued by NWS

Home | Current Version | Previous Version | Text Only | Print | Product List | Glossary Off
Versions: 1 2 3 4 5 6 7 8 9 10 11 12 13 14 15 16 17 18 19 20 21 22 23 24 25 26 27 28 29 30 31 32 33 34 35 36 37 38 39 40 41 42 43 44 45 46 47 48 49 50

000
ASUS43 KMPX 171501
RWRMN
WEATHER ROUNDUP FOR MINNESOTA
NATIONAL WEATHER SERVICE TWIN CITIES/CHANHASSEN MN
1000 AM CDT WED SEP 17 2014


NOTE: "FAIR" INDICATES FEW OR NO CLOUDS BELOW 12,000 FEET WITH NO
SIGNIFICANT WEATHER AND/OR OBSTRUCTIONS TO VISIBILITY. N/A MEANS
CURRENT SKY AND/OR WEATHER CONDITIONS ARE NOT AVAILABLE.

MNZ060>063-068>070-171600-
   Twin Cities Metro

CITY           SKY/WX    TMP DP  RH WIND       PRES   REMARKS
TWIN CITIES    MOSUNNY   61  49  64 SW6       29.95S
ST PAUL        SUNNY     61  52  72 SE5       29.96S
CRYSTAL        SUNNY     63  50  62 VRB5      29.94S
LAKEVILLE      CLOUDY    57  52  82 CALM      29.96R
EDEN PRAIRIE   SUNNY     62  52  69 SW3       29.94S
SOUTH ST PAUL  MOSUNNY   60  50  69 S3        29.95S
LAKE ELMO      FAIR      61  52  72 S5        29.97S
$$
MNZ001>005-007-008-013>017-022>024-027-028-171600-
   Northwest Minnesota

CITY           SKY/WX    TMP DP  RH WIND       PRES   REMARKS
BEMIDJI        SUNNY     57  47  69 SW3       29.94S
HALLOCK        CLOUDY    52  48  87 N13       30.00R
ROSEAU         CLOUDY    50  45  81 NE13      30.00R
WARROAD        CLOUDY    48  45  87 NE13      30.01R
THIEF RVR FALL SUNNY     57  45  62 N12       29.96R
CROOKSTON      SUNNY     54  46  76 N8        29.96S
FOSSTON        SUNNY     57  48  72 CALM      29.95R
DETROIT LAKES  SUNNY     57  52  82 NE3       29.96R
MOORHEAD       SUNNY     57  54  88 NE3       29.95S
PARK RAPIDS    SUNNY     57  48  72 N7        29.95R
MAHNOMEN       FAIR      56  49  80 N5        29.95R
$$
MNZ006-009>011-018-025>026-171600-
   North Central Minnesota

CITY           SKY/WX    TMP DP  RH WIND       PRES   REMARKS
BAUDETTE       MOSUNNY   50  44  80 NE9       29.99R
FLAG ISLAND    CLOUDY    45  39  81 NE14      30.02R
INTL FALLS     CLOUDY    50  43  77 NE12      29.98R
WASKISH        PTSUNNY   52  48  87 CALM      29.96R
BIG FORK       MOSUNNY   57  48  72 N2        29.94R
LONGVILLE      SUNNY     57  50  77 CALM      29.94S
GRAND RAPIDS   SUNNY     57  45  62 CALM      29.94S
CRANE LAKE     PTSUNNY   48  46  93 N5        29.98R
ORR            CLOUDY    52  46  82 CALM      29.93R
COOK           PTSUNNY   54  46  76 N5        29.95R
WALKER         FAIR      56  47  70 CALM      29.95S
$$
MNZ012-019>021-037-171600-
   Northeast Minnesota

CITY           SKY/WX    TMP DP  RH WIND       PRES   REMARKS
DULUTH         MOSUNNY   59  45  59 NW7       29.94S
ELY            PTSUNNY   54  46  76 N5        29.94R
HIBBING        MOSUNNY   58  47  66 CALM      29.93S
EVELETH        MOSUNNY   57  46  67 NW3       29.93S
DULUTH HARBOR  SUNNY     55  48  76 SE3       29.95S
TWO HARBORS    SUNNY     55  46  71 CALM      29.91F
SILVER BAY     MOSUNNY   55  52  88 E6        29.92R
GRAND MARAIS     N/A     47  42  83 E17G23    29.98R
G MARAIS ARPRT CLOUDY    43  39  87 NE6       29.96R
$$
MNZ029>031-032-039>041-046>048-054>057-064-171600-
   West Central Minnesota

CITY           SKY/WX    TMP DP  RH WIND       PRES   REMARKS
FERGUS FALLS   SUNNY     57  50  77 CALM      29.94S
WHEATON        SUNNY     55  52  88 NW5       29.96S
MORRIS         SUNNY     63  54  72 CALM      29.93S
ALEXANDRIA     SUNNY     61  52  72 W3        29.95S
ELBOW LAKE     FAIR      59  53  80 CALM      29.94R
WADENA         SUNNY     55  50  82 CALM      29.94S
GLENWOOD       SUNNY     61  52  72 CALM      29.95R
APPLETON       SUNNY     63  52  67 CALM      29.93S
BENSON         SUNNY     61  54  77 CALM      29.94R
ORTONVILLE     SUNNY     61  54  77 N5        29.94R
MADISON        SUNNY     64  55  72 N6        29.94R
WILLMAR        FAIR      61  52  72 CALM      29.95S
$$
MNZ033>034-036-042>043-049>051-058-059-171600-
   Central Minnesota

CITY           SKY/WX    TMP DP  RH WIND       PRES   REMARKS
ST CLOUD       SUNNY     63  52  67 CALM      29.95R
SAUK CENTRE    FAIR      57  52  82 CALM      29.94S
PAYNESVILLE    SUNNY     57  51  82 CALM      29.95R
AITKIN         SUNNY     63  52  67 CALM      29.93S
PINE RIVER     SUNNY     55  48  76 CALM      29.98R
BRAINERD       SUNNY     57  49  74 CALM      29.95R
STAPLES        SUNNY     55  48  76 CALM      29.94S
LONG PRAIRIE   FAIR      57  50  77 CALM      29.94F
LITTLE FALLS   SUNNY     57  50  77 CALM      29.94S
LITCHFIELD     PTSUNNY   63  54  72 CALM      29.95S
BUFFALO        MOSUNNY   60  50  71 CALM      29.96S
MAPLE LAKE     MOSUNNY   62  54  74 CALM      29.95S
$$
MNZ037-044-045-052-053-171600-
   East Central Minnesota

CITY           SKY/WX    TMP DP  RH WIND       PRES   REMARKS
PRINCETON      SUNNY     63  54  72 SW2       29.94F
MORA           SUNNY     55  50  82 CALM      29.97S
CAMBRIDGE      SUNNY     63  50  63 CALM      29.93S
RUSH CITY      SUNNY     60  51  73 CALM      29.95S
MOOSE LAKE     SUNNY     55  48  76 CALM      29.93S
HINCKLEY       FAIR      59  52  77 CALM      29.95S
CLOQUET        SUNNY     57  46  67 NW5       29.94S
MCGREGOR       SUNNY     59  52  77 NW6       29.95R
$$
MNZ071>073-080-081-089-090-097-098-171600-
   Southwest Minnesota

CITY           SKY/WX    TMP DP  RH WIND       PRES   REMARKS
MONTEVIDEO     SUNNY     66  61  82 CALM      29.94S
GRANITE FALLS  SUNNY     60  53  76 W3        29.95S
CANBY          SUNNY     61  54  77 N6        29.95R
MARSHALL       SUNNY     61  52  72 NW3       29.93S
REDWOOD FALLS  SUNNY     61  51  70 SW3       29.94R
OLIVIA         SUNNY     63  52  67 CALM      29.93R
PIPESTONE      SUNNY     61  52  72 CALM      29.94S
WINDOM         SUNNY     63  54  72 S7        29.94S
WORTHINGTON    PTSUNNY   61  52  72 SW3       29.96R
JACKSON        SUNNY     61  50  67 S5        29.95S
TRACY          SUNNY     64  55  71 CALM      29.94S
SLAYTON        MOSUNNY   61  53  74 CALM      29.95S
$$
MNZ065>067-074>077-082>085-091>093-171600-
   South Central Minnesota

CITY           SKY/WX    TMP DP  RH WIND       PRES   REMARKS
MANKATO        CLOUDY    59  48  67 S6        29.96R
NEW ULM        MOSUNNY   59  54  82 S5        29.94S
ST JAMES       PTSUNNY   63  52  67 SW5       29.95S
FAIRMONT       SUNNY     61  48  63 CALM      29.95S
GLENCOE        SUNNY     62  50  65 S5        29.94S
FARIBAULT      CLOUDY    63  48  59 S3        29.97R
OWATONNA       MOSUNNY   61  50  67 S5        29.97R
WASECA         SUNNY     61  46  59 SW7       29.98R
ALBERT LEA     SUNNY     61  52  72 S6        29.96F
$$
MNZ078>079-086>088-094>096-171600-
   Southeast Minnesota

CITY           SKY/WX    TMP DP  RH WIND       PRES   REMARKS
ROCHESTER      SUNNY     60  50  69 SW7       29.98F
RED WING       PTSUNNY   61  50  67 CALM      29.96S
STANTON        PTSUNNY   61  50  66 SW6       29.95S
DODGE CENTER   SUNNY     61  52  72 SW7       29.97S
WINONA         PTSUNNY   57  52  82 SE5       29.99S
AUSTIN         SUNNY     57  52  82 S5        29.98S
PRESTON        MOSUNNY   58  54  85 SW6       29.99S
$$
ABBREVIATIONS USED IN REMARKS
   TC - TEMPERATURES IN CELSIUS
  WCI - WIND CHILL INDEX
   HX - HEAT INDEX
  VSB - VISIBILITY
$$


USA.gov is the U.S. government's official web portal to all federal, state and local government web resources and services.